Calicut International Airport

Jump to: basic info | weather | frequencies | runways | comments

Related pages: nearby airports | nearby navaids | notams | map

Basic information (top)

Codes: CCJ VOCL
Location: lon 11.136800, lat 75.955299, elev 342 ft / 104 m msl
Status: large_airport
Scheduled airline service: yes
Links: Wikipedia Mobile

Weather (top)

Current conditions (rec'd 2014/10/24 14:00Z):

VOCL 241400Z 23003KT 6000 SCT015 FEW025CB SCT090 28/24 Q1010 NOSIG 

Airport forecast (rec'd 2014/10/24 06:00Z):

TAF VOCL 240300Z 2406/2512 23005KT 6000 HZ SCT012 SCT018 BKN090 
      TEMPO 2409/2413 2000 TSRA/RA SCT005 SCT012 FEW025CB OVC080 
      BECMG 2413/2414 4000 HZ 
      TEMPO 2423/2503 1000 BR SCT003 SCT012 FEW025CB 
      BECMG 2505/2506 6000 
      TEMPO 2510/2512 3000 TSRA/RA SCT006 SCT012 FEW025CB OVC080

Frequencies (top)

Verify before use: may be inaccurate or out of date.

ATIS: 127 MHz (ATIS)
TWR: 122.95 MHz (TWR)

Runways (top)

10/28: 9,383 x 150 ft (2,860 x 46 m) — paved — lighted

Latest comments (top)

Moideenkutty oorakam ( CCJ ): Calicut int airport ( Terminal,1 - ... [read]

Info: Calicut International Airport ... [read]

More... (top)

See also NOTAMs and nearby airports and navaids, or visit the Calicut International Airport page at the main OurAirports website..